ラヴジョイ彗星

C/2014 Q2 ( Lovejoy )

English version
Home page
Updated on November 13, 2016

---------------------------------------------------------------------

・ プロフィール

発見日 2014年8月17日
発見光度 14.8等
発見者 T. Lovejoy (Birkdale, Qld., Australia)

・ 写真集

・ 軌道要素

Epoch 2015 Jan. 18.0 TT = JDT 2457040.5
T 2015 Jan. 30.06921 TT                                 MPCW
q   1.2903577            (2000.0)            P               Q
z  +0.0017090      Peri.   12.39490     -0.12073166     -0.14528986
 +/-0.0000001      Node    94.97559     +0.80568070     -0.59223978
e   0.9977948      Incl.   80.30212     +0.57991593     +0.79255467
From 7027 observations 2014 July 1-2016 Sept. 10, mean residual 0".5.

・ 星図

・ 光度変化

        m1 = 2.5 + 5 logΔ + 20.0 log r(t - 25)  [   , 25]  (              〜2015年 2月24日)
        m1 = 3.6 + 5 logΔ + 10.0 log r(t - 25)  [ 25,330]  (2015年 2月24日〜2015年12月26日)
        m1 = 1.5 + 5 logΔ + 15.0 log r          [330,   ]  (2015年12月26日〜              )

---------------------------------------------------------------------

軌道要素はM.P.E.C. 2016-U66に掲載されたものです。
星図はステラナビゲータ Ver.8 (アストロアーツ) で作成したものです。
光度グラフはComet for Windowsで作成したものです。

---------------------------------------------------------------------

Copyright(C) Seiichi Yoshida (comet@aerith.net). All rights reserved.